{"data":{"norad_id":55814,"epoch":"2026-09-19T18:48:42.734880Z","epoch_age_seconds":80188,"freshness":"FRESH","line1":"1 55814U 23029U   26262.78382795  .00000298  00000+0  77060-3 0  9997","line2":"2 55814  87.8897 270.8425 0001938  94.5711 265.5640 13.14502347171791","mean_motion":13.14502347,"eccentricity":0.0001938,"inclination_deg":87.8897,"raan_deg":270.8425,"arg_perigee_deg":94.5711,"mean_anomaly_deg":265.564,"bstar":0.0007706,"rev_number":17179,"period_min":109.54716081614,"perigee_km":1204.3223315522,"apogee_km":1207.2618624702,"semimajor_km":7583.9290970112,"source":"CELESTRAK","updated_at":"2026-09-20T09:00:44.762689Z"}}